Fremont, NE

11:18 PM CDT on March 26, 2017 (GMT -0500)
Fremont Municipal

Weather History for KFET - April, 2014

Change the Weather History Date:

Saturday, April 19, 2014

  Actual Average Record
Temperature  
Mean Temperature 65 °F -  
Max Temperature 78 °F 64 °F 86 °F (1955)
Min Temperature 52 °F 43 °F 23 °F (1953)
Growing Degree Days 15 (Base 50)    
Moisture  
Dew Point 43 °F    
Average Humidity 44    
Maximum Humidity 64    
Minimum Humidity 30    
Precipitation  
Precipitation 0.00 in - - ()
Sea Level Pressure  
Sea Level Pressure 30.00 in    
Wind  
Wind Speed 16 mph (SSE)    
Max Wind Speed 22 mph    
Max Gust Speed 31 mph    
Visibility 10 miles    
Events      
Averages and records for this station are not official NWS values.
T = Trace of Precipitation, MM = Missing Value Source: NWS Daily Summary

Daily Weather History Graph

Daily Weather History Graph

Search for Another Location

Airport or City:

Trip Planner

Search our weather history database for the weather conditions in past years. The results will help you decide how hot, cold, wet, or windy it might be!

Date:

Astronomy

Apr. 19, 2014 Rise Set
Actual Time 6:40 AM CDT 8:10 PM CDT
Civil Twilight 6:11 AM CDT 8:39 PM CDT
Nautical Twilight 5:36 AM CDT 9:15 PM CDT
Astronomical Twilight 4:59 AM CDT 9:52 PM CDT
Moon No Moon Rise 9:58 AM CDT (4/19)
Length of Visible Light 14h 28m
Length of Day
13h 30m
Waning Gibbous, 78% of the Moon is Illuminated
Apr 19
Waning Gibbous
Apr 22
Last Quarter
Apr 29
New
May 6
First Quarter
May 14
Full

Hourly Weather History & Observations

Time (CDT) Temp. Dew Point Humidity Pressure Visibility Wind Dir Wind Speed Gust Speed Precip Events Conditions
12:15 AM 57.7 °F 39.0 °F 50% 30.06 in 10.0 mi SSE 16.1 mph 23.0 mph N/A   Clear
12:35 AM 57.7 °F 38.8 °F 49% 30.05 in 10.0 mi SSE 18.4 mph 24.2 mph N/A   Clear
12:55 AM 57.2 °F 39.2 °F 51% 30.04 in 10.0 mi SSE 20.7 mph 26.5 mph N/A   Clear
1:15 AM 56.7 °F 39.2 °F 52% 30.04 in 10.0 mi SSE 17.3 mph 21.9 mph N/A   Clear
1:35 AM 56.5 °F 39.4 °F 53% 30.04 in 10.0 mi SSE 18.4 mph 23.0 mph N/A   Clear
1:55 AM 56.5 °F 39.7 °F 54% 30.03 in 10.0 mi SSE 18.4 mph 26.5 mph N/A   Clear
2:15 AM 56.1 °F 40.1 °F 55% 30.02 in 10.0 mi SSE 18.4 mph 26.5 mph N/A   Clear
2:35 AM 55.8 °F 40.1 °F 56% 30.02 in 10.0 mi SSE 18.4 mph 25.3 mph N/A   Clear
2:55 AM 55.4 °F 40.1 °F 56% 30.01 in 10.0 mi SSE 16.1 mph 25.3 mph N/A   Clear
3:15 AM 55.4 °F 40.3 °F 57% 30.00 in 10.0 mi SSE 21.9 mph 28.8 mph N/A   Clear
3:35 AM 55.4 °F 40.5 °F 57% 29.99 in 10.0 mi SSE 21.9 mph 31.1 mph N/A   Clear
3:55 AM 54.9 °F 40.5 °F 58% 30.00 in 10.0 mi SSE 18.4 mph 26.5 mph N/A   Clear
4:15 AM 54.1 °F 40.6 °F 60% 30.00 in 10.0 mi SSE 18.4 mph 25.3 mph N/A   Clear
4:35 AM 54.0 °F 40.6 °F 61% 30.01 in 10.0 mi SSE 16.1 mph 25.3 mph N/A   Clear
4:55 AM 53.8 °F 40.8 °F 62% 30.01 in 10.0 mi SSE 18.4 mph - N/A   Clear
5:15 AM 53.2 °F 41.0 °F 63% 30.01 in 10.0 mi SSE 17.3 mph - N/A   Clear
5:35 AM 52.9 °F 41.0 °F 64% 30.02 in 10.0 mi SSE 13.8 mph 20.7 mph N/A   Clear
5:55 AM 52.7 °F 41.0 °F 64% 30.02 in 10.0 mi SSE 13.8 mph - N/A   Clear
6:15 AM 52.7 °F 41.0 °F 64% 30.01 in 10.0 mi SSE 15.0 mph 19.6 mph N/A   Clear
6:35 AM 52.7 °F 41.0 °F 64% 30.01 in 10.0 mi SSE 18.4 mph - N/A   Clear
6:55 AM 52.7 °F 41.0 °F 64% 30.00 in 10.0 mi SSE 18.4 mph 24.2 mph N/A   Clear
7:15 AM 52.9 °F 41.0 °F 64% 30.01 in 10.0 mi SSE 17.3 mph - N/A   Clear
7:35 AM 53.6 °F 41.0 °F 62% 30.01 in 10.0 mi SSE 18.4 mph 25.3 mph N/A   Clear
7:55 AM 54.5 °F 41.0 °F 60% 30.02 in 10.0 mi SSE 17.3 mph 24.2 mph N/A   Clear
8:15 AM 55.2 °F 41.0 °F 59% 30.02 in 10.0 mi SSE 16.1 mph - N/A   Clear
8:35 AM 57.4 °F 41.2 °F 55% 30.06 in 10.0 mi SSE 8.1 mph - N/A   Clear
8:55 AM 59.0 °F 41.2 °F 52% 30.05 in 10.0 mi SSE 15.0 mph 19.6 mph N/A   Clear
9:15 AM 60.6 °F 41.5 °F 49% 30.05 in 10.0 mi SSE 11.5 mph 17.3 mph N/A   Clear
9:35 AM 62.8 °F 42.1 °F 47% 30.04 in 10.0 mi South 12.7 mph - N/A   Clear
9:55 AM 64.9 °F 43.0 °F 45% 30.04 in 10.0 mi South 15.0 mph 20.7 mph N/A   Clear
10:15 AM 66.9 °F 44.2 °F 44% 30.04 in 10.0 mi South 19.6 mph 28.8 mph N/A   Clear
10:35 AM 68.9 °F 44.8 °F 42% 30.04 in 10.0 mi SSW 17.3 mph 27.6 mph N/A   Clear
10:55 AM 68.7 °F 44.4 °F 42% 30.03 in 10.0 mi South 18.4 mph 26.5 mph N/A   Clear
11:15 AM 68.9 °F 44.4 °F 41% 30.03 in 10.0 mi South 18.4 mph 25.3 mph N/A   Clear
11:35 AM 70.0 °F 44.6 °F 40% 30.03 in 10.0 mi South 16.1 mph 26.5 mph N/A   Clear
11:55 AM 70.2 °F 44.8 °F 40% 30.03 in 10.0 mi South 18.4 mph 25.3 mph N/A   Scattered Clouds
12:15 PM 72.1 °F 45.3 °F 38% 30.02 in 10.0 mi South 16.1 mph 21.9 mph N/A   Mostly Cloudy
12:35 PM 74.1 °F 45.1 °F 35% 30.01 in 10.0 mi South 16.1 mph 23.0 mph N/A   Scattered Clouds
12:55 PM 75.0 °F 45.0 °F 34% 30.01 in 10.0 mi South 16.1 mph 26.5 mph N/A   Clear
1:15 PM 75.4 °F 44.6 °F 33% 30.00 in 10.0 mi South 19.6 mph 25.3 mph N/A   Clear
1:35 PM 75.9 °F 45.0 °F 33% 30.00 in 10.0 mi South 17.3 mph 26.5 mph N/A   Clear
1:55 PM 76.5 °F 45.0 °F 33% 29.99 in 10.0 mi South 11.5 mph 20.7 mph N/A   Scattered Clouds
2:15 PM 77.0 °F 44.8 °F 32% 29.99 in 10.0 mi SSW 11.5 mph 25.3 mph N/A   Mostly Cloudy
2:35 PM 76.6 °F 44.2 °F 32% 29.99 in 10.0 mi South 20.7 mph 25.3 mph N/A   Mostly Cloudy
2:55 PM 76.5 °F 44.4 °F 32% 29.99 in 10.0 mi South 12.7 mph 21.9 mph N/A   Overcast
3:15 PM 77.9 °F 44.8 °F 31% 29.98 in 10.0 mi SSW 17.3 mph 20.7 mph N/A   Overcast
3:35 PM 77.0 °F 44.4 °F 31% 29.98 in 10.0 mi SSW 16.1 mph - N/A   Overcast
3:55 PM 76.5 °F 44.2 °F 32% 29.98 in 10.0 mi SSW 12.7 mph 21.9 mph N/A   Overcast
4:15 PM 76.1 °F 44.8 °F 33% 29.98 in 10.0 mi South 10.4 mph 17.3 mph N/A   Overcast
4:35 PM 76.1 °F 44.6 °F 33% 29.97 in 10.0 mi South 11.5 mph 17.3 mph N/A   Overcast
4:55 PM 76.6 °F 45.0 °F 32% 29.96 in 10.0 mi South 9.2 mph 16.1 mph N/A   Overcast
5:15 PM 76.6 °F 44.6 °F 32% 29.96 in 10.0 mi South 10.4 mph - N/A   Overcast
5:35 PM 78.1 °F 44.6 °F 30% 29.96 in 10.0 mi South 10.4 mph - N/A   Overcast
5:55 PM 78.6 °F 44.4 °F 30% 29.94 in 10.0 mi South 10.4 mph - N/A   Scattered Clouds
6:15 PM 77.9 °F 44.4 °F 30% 29.95 in 10.0 mi South 10.4 mph 17.3 mph N/A   Scattered Clouds
6:35 PM 77.4 °F 44.1 °F 31% 29.96 in 10.0 mi SSE 8.1 mph - N/A   Overcast
6:55 PM 77.2 °F 44.6 °F 31% 29.96 in 10.0 mi South 6.9 mph - N/A   Overcast
7:15 PM 76.8 °F 45.0 °F 32% 29.96 in 10.0 mi South 10.4 mph - N/A   Overcast
7:35 PM 75.9 °F 45.0 °F 33% 29.96 in 10.0 mi South 6.9 mph - N/A   Overcast
7:55 PM 75.2 °F 45.0 °F 34% 29.96 in 10.0 mi South 6.9 mph - N/A   Overcast
8:15 PM 74.1 °F 45.5 °F 36% 29.96 in 10.0 mi SSE 5.8 mph - N/A   Overcast
8:35 PM 72.5 °F 45.9 °F 39% 29.96 in 10.0 mi SE 6.9 mph - N/A   Overcast
8:55 PM 72.7 °F 46.0 °F 39% 29.96 in 10.0 mi SE 6.9 mph - N/A   Overcast
9:15 PM 72.5 °F 45.1 °F 37% 29.97 in 10.0 mi SE 10.4 mph - N/A   Overcast
9:35 PM 72.1 °F 42.8 °F 35% 29.97 in 10.0 mi SE 11.5 mph - N/A   Overcast
9:55 PM 71.6 °F 43.0 °F 36% 29.98 in 10.0 mi SE 10.4 mph - N/A   Overcast
10:15 PM 70.7 °F 43.7 °F 38% 29.98 in 10.0 mi SE 11.5 mph - N/A   Overcast
10:35 PM 70.2 °F 43.2 °F 38% 29.98 in 10.0 mi SSE 13.8 mph - N/A   Overcast
10:55 PM 69.4 °F 43.2 °F 39% 29.98 in 10.0 mi SSE 10.4 mph 19.6 mph N/A   Mostly Cloudy
11:15 PM 68.7 °F 43.3 °F 40% 29.98 in 10.0 mi SSE 11.5 mph 20.7 mph N/A   Mostly Cloudy
11:35 PM 68.0 °F 43.2 °F 41% 29.98 in 10.0 mi SSE 12.7 mph - N/A   Mostly Cloudy
11:55 PM 67.3 °F 43.2 °F 42% 29.98 in 10.0 mi SSE 11.5 mph 17.3 mph N/A   Overcast